Location: Mahannah Oil Field
(37.4664°N, 96.6003°W)
Time: 13:51:35
(UTC+00:00)

Transit 2A Rocket - Pass Details

Date: 30 January 2021
Orbit: 594 x 909 km, 66.7° (Epoch: 27 February)

Event Time Altitude Azimuth Distance (km) Brightness Sun altitude
Rises 02:09:57 0° 334° (NNW) 2,873 8.3 -28.3°
Reaches altitude 10° 02:12:14 10° 337° (NNW) 1,947 7.3 -28.8°
Enters shadow 02:13:06 16° 339° (NNW) 1,605 6.9 -29.0°
Maximum altitude 02:16:33 70° 60° (ENE) 635 - -29.6°
Drops below altitude 10° 02:20:51 10° 145° (SE) 1,931 - -30.5°
Sets 02:23:06 0° 148° (SSE) 2,848 - -30.9°
